Torna al catalogo

STARLINK-5870

AttivoComunicazioniVLEO
NORAD 57222·PAYLOAD·🇺🇸 United States

Lanciato Jul 7, 2023 da Vandenberg Space Force Base

Loading…

Prossimi Passaggi (prossime 24 ore)

TLE

AggiornatoSource: CelesTrak SupGP

Epoca: Sep 14, 2026, 21:10 UTC

1 57222C 23094E   26257.88243056  .00051806  00000+0  18763-2 0  2577
2 57222  43.0020  41.9592 0001667 271.1597  86.9121 15.27554287    15

Traccia STARLINK-5870 in tempo reale con AllMySat

Download on the App Store